| time (UTC) | temp C | wind direction | speed KPH | gust KPH | rain 1hr cm | rain 24hr cm | rain mn cm | humidity % | barometer mb |
| 20260508073517 | 11 | 298 | 3.2 | 9.7 | 0.00 | 0.03 | 0.00 | 80 | 1017.3 |
| 20260508073050 | 11 | 303 | 3.2 | 6.4 | 0.00 | 0.03 | 0.00 | 80 | 1017.2 |
| 20260508073016 | 11 | 303 | 3.2 | 6.4 | 0.00 | 0.03 | 0.00 | 80 | 1017.2 |
| 20260508072534 | 11 | 295 | 3.2 | 9.7 | 0.00 | 0.03 | 0.00 | 80 | 1017.2 |
| 20260508072033 | 11 | 307 | 4.8 | 11.3 | 0.00 | 0.03 | 0.00 | 80 | 1017.2 |
| 20260508071530 | 11 | 309 | 3.2 | 9.7 | 0.00 | 0.03 | 0.00 | 80 | 1017.2 |
| 20260508071029 | 11 | 289 | 3.2 | 9.7 | 0.00 | 0.03 | 0.00 | 81 | 1017.1 |
| 20260508070527 | 11 | 322 | 3.2 | 9.7 | 0.00 | 0.03 | 0.00 | 81 | 1017.1 |
| 20260508070025 | 11 | 333 | 3.2 | 6.4 | 0.00 | 0.03 | 0.00 | 81 | 1017.0 |
| 20260508065523 | 11 | 316 | 3.2 | 6.4 | 0.00 | 0.03 | 0.00 | 81 | 1017.1 |
| 20260508065021 | 11 | 295 | 3.2 | 9.7 | 0.00 | 0.03 | 0.00 | 81 | 1017.1 |
| 20260508064519 | 11 | 347 | 1.6 | 4.8 | 0.00 | 0.03 | 0.00 | 81 | 1017.0 |
| 20260508064017 | 11 | 298 | 1.6 | 6.4 | 0.00 | 0.03 | 0.00 | 81 | 1017.0 |
| 20260508063516 | 11 | 290 | 3.2 | 6.4 | 0.00 | 0.03 | 0.00 | 81 | 1016.9 |
| 20260508063034 | 11 | 317 | 4.8 | 9.7 | 0.00 | 0.03 | 0.00 | 82 | 1017.0 |
| 20260508062532 | 11 | 305 | 3.2 | 6.4 | 0.00 | 0.03 | 0.00 | 82 | 1016.8 |
| 20260508062030 | 11 | 305 | 3.2 | 6.4 | 0.00 | 0.03 | 0.00 | 82 | 1016.9 |
| 20260508061528 | 11 | 303 | 1.6 | 4.8 | 0.00 | 0.03 | 0.00 | 82 | 1016.8 |
| 20260508061027 | 11 | 302 | 1.6 | 6.4 | 0.00 | 0.03 | 0.00 | 82 | 1016.8 |
| 20260508060524 | 11 | 292 | 3.2 | 6.4 | 0.00 | 0.03 | 0.00 | 82 | 1016.8 |
| 20260508060023 | 11 | 347 | 3.2 | 6.4 | 0.00 | 0.03 | 0.00 | 83 | 1016.7 |
| 20260508055521 | 10 | 297 | 3.2 | 6.4 | 0.00 | 0.03 | 0.00 | 83 | 1016.7 |
| 20260508055019 | 10 | 298 | 3.2 | 6.4 | 0.00 | 0.03 | 0.00 | 82 | 1016.6 |
| 20260508054518 | 10 | 345 | 3.2 | 4.8 | 0.00 | 0.03 | 0.00 | 82 | 1016.5 |
| 20260508054036 | 10 | 349 | 3.2 | 9.7 | 0.00 | 0.03 | 0.00 | 83 | 1016.5 |
| 20260508053533 | 10 | 332 | 1.6 | 4.8 | 0.00 | 0.03 | 0.00 | 83 | 1016.5 |
| 20260508053032 | 10 | 345 | 0.0 | 3.2 | 0.00 | 0.03 | 0.00 | 83 | 1016.4 |
| 20260508052530 | 10 | 0.0 | 0.0 | 0.00 | 0.03 | 0.00 | 83 | 1016.3 | |
| 20260508052027 | 10 | 0.0 | 0.0 | 0.00 | 0.03 | 0.00 | 83 | 1016.4 | |
| 20260508051526 | 10 | 0.0 | 0.0 | 0.00 | 0.03 | 0.00 | 84 | 1016.3 | |
| 20260508051024 | 10 | 24 | 0.0 | 3.2 | 0.00 | 0.03 | 0.00 | 85 | 1016.3 |
| 20260508050522 | 10 | 28 | 1.6 | 4.8 | 0.00 | 0.03 | 0.00 | 85 | 1016.2 |
| 20260508050020 | 10 | 351 | 1.6 | 4.8 | 0.00 | 0.03 | 0.00 | 85 | 1016.3 |
| 20260508045518 | 10 | 349 | 1.6 | 6.4 | 0.00 | 0.03 | 0.00 | 85 | 1016.2 |
| 20260508045016 | 10 | 356 | 1.6 | 6.4 | 0.00 | 0.03 | 0.00 | 85 | 1016.2 |
| 20260508044535 | 10 | 14 | 1.6 | 4.8 | 0.00 | 0.03 | 0.00 | 85 | 1016.2 |
| 20260508044033 | 10 | 6 | 1.6 | 6.4 | 0.00 | 0.03 | 0.00 | 86 | 1016.2 |
| 20260508043531 | 10 | 5 | 1.6 | 6.4 | 0.00 | 0.03 | 0.00 | 86 | 1016.3 |
| 20260508043029 | 10 | 24 | 1.6 | 4.8 | 0.00 | 0.03 | 0.00 | 86 | 1016.3 |
| 20260508042527 | 10 | 12 | 0.0 | 3.2 | 0.00 | 0.03 | 0.00 | 86 | 1016.3 |
| 20260508042025 | 10 | 341 | 1.6 | 6.4 | 0.00 | 0.03 | 0.00 | 86 | 1016.2 |
| 20260508041524 | 10 | 347 | 3.2 | 6.4 | 0.00 | 0.03 | 0.00 | 86 | 1016.0 |
| 20260508041021 | 10 | 339 | 3.2 | 6.4 | 0.00 | 0.03 | 0.00 | 86 | 1016.1 |
| 20260508040520 | 10 | 347 | 4.8 | 9.7 | 0.00 | 0.03 | 0.00 | 86 | 1016.0 |
| 20260508040018 | 10 | 344 | 3.2 | 6.4 | 0.00 | 0.03 | 0.00 | 85 | 1016.0 |
| 20260508035517 | 10 | 352 | 4.8 | 11.3 | 0.00 | 0.03 | 0.00 | 85 | 1015.9 |
| 20260508035034 | 10 | 343 | 1.6 | 6.4 | 0.00 | 0.03 | 0.00 | 84 | 1016.0 |
| 20260508034533 | 10 | 332 | 1.6 | 6.4 | 0.00 | 0.03 | 0.00 | 84 | 1015.9 |
| 20260508034031 | 11 | 336 | 3.2 | 6.4 | 0.00 | 0.03 | 0.00 | 84 | 1015.9 |
| 20260508033529 | 11 | 343 | 3.2 | 9.7 | 0.00 | 0.03 | 0.00 | 83 | 1015.9 |
| 20260508033027 | 11 | 357 | 3.2 | 6.4 | 0.00 | 0.03 | 0.00 | 83 | 1015.7 |
| 20260508032525 | 11 | 9 | 3.2 | 9.7 | 0.00 | 0.03 | 0.00 | 82 | 1015.7 |
| 20260508032024 | 11 | 20 | 1.6 | 6.4 | 0.00 | 0.03 | 0.00 | 82 | 1015.6 |
| 20260508031522 | 11 | 343 | 4.8 | 12.9 | 0.00 | 0.03 | 0.00 | 82 | 1015.6 |
| 20260508031020 | 11 | 316 | 3.2 | 6.4 | 0.00 | 0.03 | 0.00 | 81 | 1015.7 |
| 20260508030518 | 11 | 346 | 4.8 | 11.3 | 0.00 | 0.03 | 0.00 | 81 | 1015.7 |
| 20260508030016 | 11 | 332 | 4.8 | 11.3 | 0.00 | 0.03 | 0.00 | 81 | 1015.6 |
| 20260508025535 | 11 | 328 | 4.8 | 9.7 | 0.00 | 0.03 | 0.00 | 81 | 1015.6 |
| 20260508025033 | 11 | 348 | 4.8 | 9.7 | 0.00 | 0.03 | 0.00 | 81 | 1015.5 |
| 20260508024531 | 11 | 337 | 3.2 | 9.7 | 0.00 | 0.03 | 0.00 | 80 | 1015.7 |
| 20260508024029 | 11 | 324 | 3.2 | 6.4 | 0.00 | 0.03 | 0.00 | 80 | 1015.6 |
| 20260508023527 | 11 | 312 | 3.2 | 6.4 | 0.00 | 0.03 | 0.00 | 80 | 1015.7 |
| 20260508023026 | 11 | 306 | 3.2 | 9.7 | 0.00 | 0.03 | 0.00 | 80 | 1015.7 |
| 20260508022524 | 11 | 293 | 3.2 | 11.3 | 0.00 | 0.03 | 0.00 | 80 | 1015.7 |
| 20260508022049 | 11 | 300 | 3.2 | 9.7 | 0.00 | 0.03 | 0.00 | 80 | 1015.6 |
| 20260508022023 | 11 | 300 | 3.2 | 9.7 | 0.00 | 0.03 | 0.00 | 80 | 1015.6 |
| 20260508021521 | 11 | 299 | 1.6 | 4.8 | 0.00 | 0.03 | 0.00 | 80 | 1015.5 |
| 20260508021018 | 11 | 310 | 1.6 | 4.8 | 0.00 | 0.03 | 0.00 | 81 | 1015.5 |
| 20260508020516 | 11 | 301 | 1.6 | 6.4 | 0.00 | 0.03 | 0.00 | 81 | 1015.3 |
| 20260508020035 | 11 | 333 | 3.2 | 11.3 | 0.00 | 0.03 | 0.00 | 81 | 1015.2 |
| 20260508015533 | 11 | 309 | 3.2 | 9.7 | 0.00 | 0.03 | 0.00 | 81 | 1015.4 |
| 20260508015032 | 11 | 338 | 3.2 | 6.4 | 0.00 | 0.03 | 0.00 | 81 | 1015.2 |
| 20260508014530 | 11 | 353 | 4.8 | 9.7 | 0.00 | 0.03 | 0.00 | 81 | 1015.3 |
| 20260508014028 | 11 | 346 | 1.6 | 6.4 | 0.00 | 0.03 | 0.00 | 81 | 1015.2 |
| 20260508013526 | 11 | 337 | 1.6 | 9.7 | 0.00 | 0.03 | 0.00 | 81 | 1015.2 |
| 20260508013037 | 11 | 342 | 1.6 | 4.8 | 0.00 | 0.03 | 0.00 | 81 | 1015.1 |
| 20260508012522 | 11 | 347 | 3.2 | 4.8 | 0.00 | 0.03 | 0.00 | 81 | 1015.1 |
| 20260508012020 | 11 | 356 | 3.2 | 11.3 | 0.00 | 0.03 | 0.00 | 81 | 1015.2 |
| 20260508011518 | 11 | 349 | 3.2 | 9.7 | 0.00 | 0.03 | 0.00 | 81 | 1015.2 |
| 20260508011016 | 11 | 327 | 1.6 | 4.8 | 0.00 | 0.03 | 0.00 | 81 | 1015.3 |
| 20260508010534 | 11 | 344 | 1.6 | 4.8 | 0.00 | 0.03 | 0.00 | 81 | 1015.2 |
| 20260508010033 | 11 | 348 | 3.2 | 6.4 | 0.00 | 0.03 | 0.00 | 82 | 1015.3 |
| 20260508005531 | 11 | 341 | 3.2 | 11.3 | 0.00 | 0.03 | 0.00 | 82 | 1015.2 |
| 20260508005029 | 11 | 351 | 4.8 | 12.9 | 0.00 | 0.03 | 0.00 | 82 | 1015.2 |
| 20260508004527 | 11 | 0 | 6.4 | 12.9 | 0.00 | 0.03 | 0.00 | 81 | 1015.3 |
| 20260508004026 | 11 | 356 | 1.6 | 4.8 | 0.00 | 0.03 | 0.00 | 82 | 1015.2 |
| 20260508003523 | 11 | 327 | 1.6 | 9.7 | 0.00 | 0.03 | 0.00 | 82 | 1015.3 |
| 20260508003021 | 11 | 347 | 3.2 | 9.7 | 0.00 | 0.03 | 0.00 | 82 | 1015.2 |
| 20260508002520 | 11 | 329 | 4.8 | 12.9 | 0.00 | 0.03 | 0.00 | 82 | 1015.2 |
| 20260508002018 | 11 | 349 | 4.8 | 12.9 | 0.00 | 0.03 | 0.00 | 82 | 1015.2 |
| 20260508001516 | 11 | 346 | 4.8 | 9.7 | 0.00 | 0.03 | 0.00 | 82 | 1015.2 |
| 20260508001035 | 11 | 347 | 3.2 | 14.5 | 0.00 | 0.03 | 0.00 | 82 | 1015.1 |
| 20260508000532 | 11 | 324 | 3.2 | 9.7 | 0.00 | 0.03 | 0.00 | 82 | 1015.1 |
| 20260508000031 | 11 | 345 | 3.2 | 11.3 | 0.00 | 0.03 | 0.00 | 82 | 1015.2 |
| 20260507235529 | 11 | 346 | 3.2 | 12.9 | 0.00 | 0.03 | 0.00 | 82 | 1015.1 |
| 20260507235028 | 11 | 342 | 3.2 | 11.3 | 0.00 | 0.03 | 0.00 | 82 | 1015.2 |
| 20260507234525 | 12 | 346 | 4.8 | 11.3 | 0.00 | 0.03 | 0.00 | 82 | 1015.2 |
| 20260507234024 | 12 | 335 | 3.2 | 11.3 | 0.00 | 0.03 | 0.00 | 82 | 1015.2 |
| 20260507233522 | 12 | 358 | 3.2 | 6.4 | 0.00 | 0.03 | 0.00 | 81 | 1015.3 |
| 20260507233020 | 12 | 340 | 3.2 | 9.7 | 0.00 | 0.03 | 0.00 | 81 | 1015.4 |
| 20260507232518 | 12 | 350 | 3.2 | 9.7 | 0.00 | 0.03 | 0.00 | 81 | 1015.3 |
| 20260507232017 | 12 | 354 | 3.2 | 6.4 | 0.00 | 0.03 | 0.00 | 81 | 1015.4 |
| 20260507231534 | 12 | 345 | 4.8 | 11.3 | 0.00 | 0.03 | 0.00 | 81 | 1015.4 |
| 20260507231034 | 12 | 343 | 4.8 | 11.3 | 0.00 | 0.03 | 0.00 | 81 | 1015.4 |
| 20260507230530 | 12 | 349 | 4.8 | 9.7 | 0.00 | 0.03 | 0.00 | 81 | 1015.5 |
| 20260507230029 | 12 | 329 | 3.2 | 9.7 | 0.00 | 0.03 | 0.00 | 81 | 1015.5 |
| 20260507225527 | 12 | 311 | 3.2 | 9.7 | 0.00 | 0.03 | 0.00 | 81 | 1015.5 |
| 20260507225025 | 12 | 337 | 3.2 | 9.7 | 0.00 | 0.03 | 0.00 | 81 | 1015.5 |
| 20260507224523 | 12 | 321 | 3.2 | 6.4 | 0.00 | 0.03 | 0.00 | 81 | 1015.5 |
| 20260507224022 | 12 | 318 | 4.8 | 14.5 | 0.00 | 0.03 | 0.00 | 81 | 1015.4 |
| 20260507223520 | 12 | 303 | 4.8 | 9.7 | 0.00 | 0.03 | 0.00 | 81 | 1015.5 |
| 20260507223018 | 12 | 309 | 3.2 | 9.7 | 0.00 | 0.03 | 0.00 | 81 | 1015.4 |
| 20260507222516 | 12 | 308 | 3.2 | 6.4 | 0.00 | 0.03 | 0.00 | 81 | 1015.3 |
| 20260507222034 | 12 | 341 | 4.8 | 11.3 | 0.00 | 0.03 | 0.00 | 81 | 1015.2 |
| 20260507221532 | 12 | 352 | 1.6 | 6.4 | 0.00 | 0.03 | 0.00 | 81 | 1015.1 |
| 20260507221031 | 12 | 339 | 4.8 | 11.3 | 0.00 | 0.03 | 0.00 | 81 | 1015.1 |
| 20260507220528 | 12 | 336 | 4.8 | 11.3 | 0.00 | 0.03 | 0.00 | 81 | 1015.0 |
| 20260507220027 | 12 | 328 | 4.8 | 12.9 | 0.00 | 0.03 | 0.03 | 81 | 1015.0 |
| 20260507215526 | 12 | 350 | 4.8 | 14.5 | 0.00 | 0.03 | 0.03 | 81 | 1014.9 |
| 20260507215023 | 12 | 352 | 6.4 | 14.5 | 0.00 | 0.03 | 0.03 | 81 | 1014.7 |
| 20260507214522 | 12 | 338 | 4.8 | 17.7 | 0.00 | 0.03 | 0.03 | 81 | 1014.7 |
| 20260507214054 | 12 | 354 | 6.4 | 12.9 | 0.00 | 0.03 | 0.03 | 81 | 1014.8 |
| 20260507214020 | 12 | 354 | 6.4 | 12.9 | 0.00 | 0.03 | 0.03 | 81 | 1014.8 |
| 20260507213518 | 13 | 353 | 4.8 | 14.5 | 0.00 | 0.03 | 0.03 | 81 | 1014.7 |
| 20260507213050 | 13 | 346 | 6.4 | 14.5 | 0.00 | 0.03 | 0.03 | 81 | 1014.6 |
| 20260507213016 | 13 | 346 | 6.4 | 14.5 | 0.00 | 0.03 | 0.03 | 81 | 1014.6 |
| 20260507212535 | 13 | 329 | 4.8 | 9.7 | 0.00 | 0.03 | 0.03 | 81 | 1014.6 |
| 20260507212032 | 13 | 328 | 3.2 | 9.7 | 0.00 | 0.03 | 0.03 | 81 | 1014.7 |
| 20260507211531 | 13 | 293 | 3.2 | 6.4 | 0.00 | 0.03 | 0.03 | 81 | 1014.8 |
| 20260507211029 | 13 | 302 | 4.8 | 11.3 | 0.00 | 0.03 | 0.03 | 81 | 1014.6 |
| 20260507210527 | 13 | 297 | 6.4 | 12.9 | 0.00 | 0.03 | 0.03 | 81 | 1014.6 |
| 20260507210025 | 13 | 302 | 1.6 | 6.4 | 0.00 | 0.03 | 0.03 | 80 | 1014.3 |
| 20260507205523 | 13 | 73 | 1.6 | 3.2 | 0.00 | 0.03 | 0.03 | 79 | 1014.1 |
| 20260507205022 | 14 | 11 | 1.6 | 6.4 | 0.00 | 0.03 | 0.03 | 79 | 1014.4 |
| 20260507204518 | 14 | 350 | 1.6 | 6.4 | 0.00 | 0.03 | 0.03 | 78 | 1014.4 |
| 20260507204016 | 14 | 58 | 0.0 | 1.6 | 0.00 | 0.03 | 0.03 | 77 | 1014.1 |
| 20260507203534 | 14 | 105 | 0.0 | 3.2 | 0.00 | 0.03 | 0.03 | 77 | 1014.1 |
| 20260507203033 | 14 | 0.0 | 0.0 | 0.00 | 0.03 | 0.03 | 77 | 1014.1 | |
| 20260507202531 | 14 | 102 | 1.6 | 3.2 | 0.00 | 0.03 | 0.03 | 77 | 1014.1 |
| 20260507202029 | 14 | 0.0 | 0.0 | 0.00 | 0.03 | 0.03 | 77 | 1014.1 | |
| 20260507201527 | 14 | 0.0 | 0.0 | 0.00 | 0.03 | 0.03 | 77 | 1014.1 | |
| 20260507201025 | 14 | 0.0 | 0.0 | 0.00 | 0.03 | 0.03 | 77 | 1014.2 | |
| 20260507200524 | 14 | 78 | 0.0 | 1.6 | 0.00 | 0.03 | 0.03 | 77 | 1014.2 |
| 20260507200021 | 14 | 344 | 0.0 | 1.6 | 0.00 | 0.03 | 0.03 | 77 | 1014.3 |
| 20260507195519 | 14 | 339 | 0.0 | 1.6 | 0.00 | 0.03 | 0.03 | 77 | 1014.3 |
| 20260507195018 | 14 | 328 | 1.6 | 6.4 | 0.00 | 0.03 | 0.03 | 77 | 1014.4 |
| 20260507194536 | 14 | 338 | 0.0 | 3.2 | 0.00 | 0.03 | 0.03 | 77 | 1014.5 |
| 20260507194034 | 14 | 314 | 0.0 | 3.2 | 0.00 | 0.03 | 0.03 | 78 | 1014.4 |
| 20260507193532 | 14 | 342 | 1.6 | 4.8 | 0.00 | 0.03 | 0.03 | 78 | 1014.5 |
| 20260507193048 | 14 | 317 | 1.6 | 6.4 | 0.00 | 0.00 | 0.03 | 78 | 1014.4 |
| 20260507193030 | 14 | 317 | 1.6 | 6.4 | 0.00 | 0.03 | 0.03 | 78 | 1014.4 |
| 20260507192528 | 14 | 318 | 3.2 | 6.4 | 0.00 | 0.03 | 0.03 | 79 | 1014.4 |
| 20260507192026 | 14 | 308 | 3.2 | 12.9 | 0.00 | 0.03 | 0.03 | 79 | 1014.5 |
| 20260507191524 | 14 | 332 | 3.2 | 6.4 | 0.00 | 0.03 | 0.03 | 79 | 1014.4 |
| 20260507191023 | 14 | 345 | 4.8 | 9.7 | 0.03 | 0.03 | 0.03 | 78 | 1014.3 |
| 20260507190521 | 14 | 348 | 4.8 | 11.3 | 0.03 | 0.03 | 0.03 | 78 | 1014.3 |
| 20260507190052 | 14 | 342 | 3.2 | 14.5 | 0.03 | 0.03 | 0.03 | 78 | 1014.2 |
| 20260507190019 | 14 | 342 | 3.2 | 14.5 | 0.03 | 0.03 | 0.03 | 78 | 1014.2 |
| 20260507185517 | 15 | 344 | 4.8 | 9.7 | 0.03 | 0.03 | 0.03 | 78 | 1014.2 |
| 20260507185035 | 15 | 353 | 6.4 | 11.3 | 0.03 | 0.03 | 0.03 | 78 | 1014.2 |
| 20260507184534 | 15 | 347 | 4.8 | 11.3 | 0.03 | 0.03 | 0.03 | 77 | 1014.1 |
| 20260507184032 | 15 | 342 | 6.4 | 17.7 | 0.03 | 0.03 | 0.03 | 76 | 1014.1 |
| 20260507183531 | 15 | 352 | 6.4 | 12.9 | 0.03 | 0.03 | 0.03 | 76 | 1014.0 |
| 20260507183028 | 15 | 348 | 6.4 | 11.3 | 0.03 | 0.03 | 0.03 | 75 | 1014.0 |
| 20260507182526 | 15 | 338 | 4.8 | 11.3 | 0.03 | 0.03 | 0.03 | 74 | 1013.9 |
| 20260507182025 | 16 | 347 | 4.8 | 9.7 | 0.03 | 0.03 | 0.03 | 73 | 1013.8 |
| 20260507181523 | 16 | 350 | 3.2 | 6.4 | 0.00 | 0.00 | 0.00 | 73 | 1013.7 |
| 20260507181021 | 16 | 340 | 3.2 | 6.4 | 0.00 | 0.00 | 0.00 | 72 | 1013.5 |
| 20260507180519 | 16 | 348 | 4.8 | 12.9 | 0.00 | 0.00 | 0.00 | 70 | 1013.4 |
| 20260507180018 | 16 | 314 | 3.2 | 9.7 | 0.00 | 0.00 | 0.00 | 69 | 1013.3 |
| 20260507175515 | 16 | 355 | 6.4 | 11.3 | 0.00 | 0.00 | 0.00 | 69 | 1013.2 |
| 20260507175035 | 16 | 348 | 4.8 | 11.3 | 0.00 | 0.00 | 0.00 | 69 | 1013.1 |
| 20260507174532 | 16 | 358 | 1.6 | 6.4 | 0.00 | 0.00 | 0.00 | 68 | 1013.1 |
| 20260507174030 | 16 | 355 | 3.2 | 9.7 | 0.00 | 0.00 | 0.00 | 68 | 1013.0 |
| 20260507173529 | 16 | 332 | 4.8 | 14.5 | 0.00 | 0.00 | 0.00 | 68 | 1013.0 |
| 20260507173026 | 16 | 342 | 4.8 | 12.9 | 0.00 | 0.00 | 0.00 | 68 | 1012.8 |
| 20260507172524 | 16 | 320 | 4.8 | 14.5 | 0.00 | 0.00 | 0.00 | 67 | 1012.8 |
| 20260507172023 | 17 | 332 | 4.8 | 12.9 | 0.00 | 0.00 | 0.00 | 67 | 1012.7 |
| 20260507171521 | 17 | 345 | 4.8 | 14.5 | 0.00 | 0.00 | 0.00 | 67 | 1012.6 |
| 20260507171019 | 17 | 344 | 3.2 | 11.3 | 0.00 | 0.00 | 0.00 | 66 | 1012.6 |
| 20260507170517 | 17 | 351 | 3.2 | 6.4 | 0.00 | 0.00 | 0.00 | 66 | 1012.4 |
| 20260507170036 | 17 | 1 | 3.2 | 11.3 | 0.00 | 0.00 | 0.00 | 66 | 1012.3 |
| 20260507165534 | 17 | 354 | 4.8 | 11.3 | 0.00 | 0.00 | 0.00 | 66 | 1012.2 |
| 20260507165032 | 17 | 333 | 3.2 | 6.4 | 0.00 | 0.00 | 0.00 | 66 | 1012.2 |
| 20260507164530 | 17 | 336 | 3.2 | 11.3 | 0.00 | 0.00 | 0.00 | 66 | 1012.1 |
| 20260507164028 | 17 | 359 | 1.6 | 9.7 | 0.00 | 0.00 | 0.00 | 66 | 1012.1 |
| 20260507163526 | 17 | 345 | 4.8 | 11.3 | 0.00 | 0.00 | 0.00 | 65 | 1012.2 |
| 20260507163024 | 17 | 352 | 6.4 | 14.5 | 0.00 | 0.00 | 0.00 | 65 | 1012.2 |
| 20260507162523 | 17 | 7 | 3.2 | 9.7 | 0.00 | 0.00 | 0.00 | 65 | 1012.2 |
| 20260507162021 | 17 | 347 | 4.8 | 16.1 | 0.00 | 0.00 | 0.00 | 65 | 1012.2 |
| 20260507161519 | 17 | 316 | 6.4 | 17.7 | 0.00 | 0.00 | 0.00 | 65 | 1012.3 |
| 20260507161048 | 17 | 344 | 3.2 | 12.9 | 0.00 | 0.00 | 0.00 | 65 | 1012.3 |
| 20260507161017 | 17 | 344 | 3.2 | 12.9 | 0.00 | 0.00 | 0.00 | 65 | 1012.3 |
| 20260507160536 | 17 | 333 | 4.8 | 14.5 | 0.00 | 0.00 | 0.00 | 65 | 1012.3 |
| 20260507160033 | 17 | 311 | 4.8 | 14.5 | 0.00 | 0.00 | 0.00 | 65 | 1012.2 |
| 20260507155531 | 17 | 334 | 6.4 | 14.5 | 0.00 | 0.00 | 0.00 | 65 | 1012.2 |
| 20260507155029 | 17 | 339 | 4.8 | 12.9 | 0.00 | 0.00 | 0.00 | 65 | 1012.2 |
| 20260507154527 | 17 | 14 | 4.8 | 11.3 | 0.00 | 0.00 | 0.00 | 65 | 1012.2 |
| 20260507154026 | 17 | 347 | 6.4 | 12.9 | 0.00 | 0.00 | 0.00 | 65 | 1012.1 |
| 20260507153523 | 17 | 304 | 3.2 | 11.3 | 0.00 | 0.00 | 0.00 | 65 | 1012.1 |
| 20260507153022 | 17 | 318 | 4.8 | 11.3 | 0.00 | 0.00 | 0.00 | 65 | 1012.1 |
| 20260507152520 | 17 | 346 | 3.2 | 9.7 | 0.00 | 0.00 | 0.00 | 65 | 1012.2 |
| 20260507152348 | 17 | 342 | 4.8 | 9.7 | 0.00 | 0.00 | 0.00 | 65 | 1012.2 |
| 20260507152050 | 17 | 342 | 4.8 | 9.7 | 0.00 | 0.00 | 0.00 | 65 | 1012.2 |
| 20260507152018 | 17 | 342 | 4.8 | 9.7 | 0.00 | 0.00 | 0.00 | 65 | 1012.2 |
| 20260507151516 | 18 | 349 | 4.8 | 11.3 | 0.00 | 0.00 | 0.00 | 65 | 1012.3 |
| 20260507151035 | 18 | 305 | 4.8 | 11.3 | 0.00 | 0.00 | 0.00 | 65 | 1012.1 |
| 20260507150533 | 18 | 320 | 4.8 | 12.9 | 0.00 | 0.00 | 0.00 | 65 | 1012.1 |
| 20260507150350 | 18 | 293 | 6.4 | 12.9 | 0.00 | 0.00 | 0.00 | 65 | 1012.3 |
| 20260507150031 | 18 | 293 | 6.4 | 12.9 | 0.00 | 0.00 | 0.00 | 65 | 1012.3 |
| 20260507145530 | 18 | 304 | 9.7 | 17.7 | 0.00 | 0.00 | 0.00 | 66 | 1012.4 |
| 20260507145027 | 17 | 313 | 6.4 | 16.1 | 0.00 | 0.00 | 0.00 | 66 | 1012.3 |
| 20260507144526 | 17 | 289 | 6.4 | 16.1 | 0.00 | 0.00 | 0.00 | 66 | 1012.2 |
| 20260507144025 | 18 | 330 | 8.0 | 20.9 | 0.00 | 0.00 | 0.00 | 65 | 1012.3 |
| 20260507143522 | 18 | 313 | 4.8 | 14.5 | 0.00 | 0.00 | 0.00 | 66 | 1012.2 |
| 20260507143020 | 17 | 292 | 8.0 | 14.5 | 0.00 | 0.00 | 0.00 | 66 | 1012.2 |
| 20260507142518 | 17 | 295 | 8.0 | 16.1 | 0.00 | 0.00 | 0.00 | 66 | 1012.2 |
| 20260507142016 | 17 | 297 | 8.0 | 14.5 | 0.00 | 0.00 | 0.00 | 66 | 1012.2 |
| 20260507141534 | 17 | 338 | 6.4 | 12.9 | 0.00 | 0.00 | 0.00 | 67 | 1012.1 |
| 20260507141033 | 17 | 348 | 8.0 | 17.7 | 0.00 | 0.00 | 0.00 | 66 | 1012.1 |
| 20260507140531 | 17 | 326 | 6.4 | 17.7 | 0.00 | 0.00 | 0.00 | 67 | 1012.1 |
| 20260507140029 | 17 | 345 | 8.0 | 17.7 | 0.00 | 0.00 | 0.00 | 67 | 1012.1 |
| 20260507135527 | 18 | 316 | 4.8 | 14.5 | 0.00 | 0.00 | 0.00 | 67 | 1012.2 |
| 20260507135047 | 18 | 351 | 6.4 | 14.5 | 0.00 | 0.00 | 0.00 | 66 | 1012.0 |
| 20260507135026 | 18 | 351 | 6.4 | 14.5 | 0.00 | 0.00 | 0.00 | 66 | 1012.0 |
| 20260507134524 | 18 | 331 | 4.8 | 12.9 | 0.00 | 0.00 | 0.00 | 67 | 1012.1 |
| 20260507134055 | 18 | 292 | 8.0 | 14.5 | 0.00 | 0.00 | 0.00 | 67 | 1012.1 |
| 20260507134022 | 18 | 292 | 8.0 | 14.5 | 0.00 | 0.00 | 0.00 | 67 | 1012.1 |
| 20260507133520 | 18 | 316 | 8.0 | 16.1 | 0.00 | 0.00 | 0.00 | 67 | 1012.0 |
| 20260507133019 | 17 | 312 | 9.7 | 20.9 | 0.00 | 0.00 | 0.00 | 68 | 1012.0 |
| 20260507132516 | 17 | 297 | 11.3 | 24.1 | 0.00 | 0.00 | 0.00 | 68 | 1012.1 |
| 20260507132035 | 17 | 298 | 11.3 | 22.5 | 0.00 | 0.00 | 0.00 | 68 | 1012.1 |
| 20260507131533 | 17 | 306 | 9.7 | 20.9 | 0.00 | 0.00 | 0.00 | 67 | 1012.2 |
| 20260507131031 | 17 | 301 | 9.7 | 24.1 | 0.00 | 0.00 | 0.00 | 67 | 1012.2 |
| 20260507130529 | 17 | 305 | 6.4 | 17.7 | 0.00 | 0.00 | 0.00 | 67 | 1012.1 |
| 20260507130027 | 17 | 305 | 8.0 | 17.7 | 0.00 | 0.00 | 0.00 | 67 | 1012.0 |
| 20260507125525 | 17 | 320 | 6.4 | 14.5 | 0.00 | 0.00 | 0.00 | 67 | 1012.0 |
| 20260507125024 | 17 | 312 | 6.4 | 12.9 | 0.00 | 0.00 | 0.00 | 67 | 1011.9 |
| 20260507124522 | 18 | 329 | 4.8 | 11.3 | 0.00 | 0.00 | 0.00 | 67 | 1011.9 |
| 20260507124020 | 18 | 318 | 4.8 | 16.1 | 0.00 | 0.00 | 0.00 | 67 | 1011.8 |
| 20260507123518 | 18 | 348 | 8.0 | 17.7 | 0.00 | 0.00 | 0.00 | 67 | 1011.8 |
| 20260507123016 | 17 | 311 | 6.4 | 16.1 | 0.00 | 0.00 | 0.00 | 68 | 1011.7 |
| 20260507122534 | 17 | 322 | 9.7 | 22.5 | 0.00 | 0.00 | 0.00 | 68 | 1011.7 |
| 20260507122033 | 17 | 353 | 8.0 | 16.1 | 0.00 | 0.00 | 0.00 | 68 | 1011.7 |
| 20260507121531 | 17 | 1 | 11.3 | 22.5 | 0.00 | 0.00 | 0.00 | 69 | 1011.8 |
| 20260507121029 | 17 | 315 | 8.0 | 17.7 | 0.00 | 0.00 | 0.00 | 69 | 1011.8 |
| 20260507120527 | 17 | 6 | 9.7 | 17.7 | 0.00 | 0.00 | 0.00 | 69 | 1011.8 |
| 20260507120025 | 17 | 1 | 8.0 | 20.9 | 0.00 | 0.00 | 0.00 | 68 | 1011.7 |
| 20260507115523 | 18 | 352 | 9.7 | 22.5 | 0.00 | 0.00 | 0.00 | 68 | 1011.6 |
| 20260507115022 | 18 | 353 | 9.7 | 22.5 | 0.00 | 0.00 | 0.00 | 68 | 1011.6 |
| 20260507114520 | 18 | 349 | 8.0 | 16.1 | 0.00 | 0.00 | 0.00 | 68 | 1011.6 |
| 20260507114018 | 18 | 350 | 8.0 | 24.1 | 0.00 | 0.00 | 0.00 | 68 | 1011.5 |
| 20260507113516 | 18 | 335 | 6.4 | 16.1 | 0.00 | 0.00 | 0.00 | 68 | 1011.5 |
| 20260507113035 | 18 | 318 | 6.4 | 11.3 | 0.00 | 0.00 | 0.00 | 68 | 1011.5 |
| 20260507112533 | 18 | 317 | 8.0 | 20.9 | 0.00 | 0.00 | 0.00 | 67 | 1011.4 |
| 20260507112031 | 18 | 313 | 9.7 | 22.5 | 0.00 | 0.00 | 0.00 | 67 | 1011.3 |
| 20260507111530 | 18 | 308 | 9.7 | 20.9 | 0.00 | 0.00 | 0.00 | 67 | 1011.3 |
| 20260507111027 | 18 | 327 | 9.7 | 16.1 | 0.00 | 0.00 | 0.00 | 67 | 1011.1 |
| 20260507110526 | 18 | 327 | 9.7 | 17.7 | 0.00 | 0.00 | 0.00 | 66 | 1011.1 |
| 20260507110024 | 19 | 319 | 11.3 | 22.5 | 0.00 | 0.00 | 0.00 | 66 | 1011.0 |
| 20260507105522 | 19 | 292 | 11.3 | 17.7 | 0.00 | 0.00 | 0.00 | 65 | 1011.0 |
| 20260507105020 | 19 | 307 | 4.8 | 14.5 | 0.00 | 0.00 | 0.00 | 65 | 1010.8 |
| 20260507104518 | 20 | 319 | 6.4 | 16.1 | 0.00 | 0.00 | 0.00 | 64 | 1010.7 |
| 20260507104018 | 20 | 308 | 8.0 | 20.9 | 0.00 | 0.00 | 0.00 | 64 | 1010.7 |
| 20260507103535 | 20 | 308 | 6.4 | 16.1 | 0.00 | 0.00 | 0.00 | 63 | 1010.6 |
| 20260507103033 | 20 | 308 | 8.0 | 14.5 | 0.00 | 0.00 | 0.00 | 63 | 1010.6 |
| 20260507102531 | 20 | 302 | 8.0 | 17.7 | 0.00 | 0.00 | 0.00 | 63 | 1010.3 |
| 20260507102031 | 20 | 301 | 9.7 | 27.4 | 0.00 | 0.00 | 0.00 | 63 | 1010.3 |
| 20260507101528 | 20 | 291 | 6.4 | 12.9 | 0.00 | 0.00 | 0.00 | 62 | 1010.3 |
| 20260507101026 | 20 | 306 | 6.4 | 11.3 | 0.00 | 0.00 | 0.00 | 62 | 1010.1 |
| 20260507100524 | 20 | 295 | 12.9 | 22.5 | 0.00 | 0.00 | 0.00 | 62 | 1010.1 |
| 20260507100022 | 20 | 307 | 8.0 | 16.1 | 0.00 | 0.00 | 0.00 | 62 | 1010.1 |
| 20260507095520 | 20 | 290 | 6.4 | 16.1 | 0.00 | 0.00 | 0.00 | 61 | 1010.0 |
| 20260507095103 | 20 | 291 | 8.0 | 17.7 | 0.00 | 0.00 | 0.00 | 60 | 1009.9 |
| 20260507095019 | 20 | 291 | 8.0 | 17.7 | 0.00 | 0.00 | 0.00 | 60 | 1009.9 |
| 20260507094517 | 20 | 306 | 6.4 | 14.5 | 0.00 | 0.00 | 0.00 | 59 | 1009.9 |
| 20260507094035 | 20 | 290 | 8.0 | 14.5 | 0.00 | 0.00 | 0.00 | 59 | 1009.9 |
| 20260507093534 | 20 | 289 | 8.0 | 22.5 | 0.00 | 0.00 | 0.00 | 58 | 1009.8 |
| 20260507093031 | 21 | 283 | 6.4 | 16.1 | 0.00 | 0.00 | 0.00 | 58 | 1009.8 |
| 20260507092529 | 21 | 285 | 6.4 | 16.1 | 0.00 | 0.00 | 0.00 | 59 | 1009.9 |
| 20260507092027 | 21 | 283 | 4.8 | 12.9 | 0.00 | 0.00 | 0.00 | 58 | 1009.7 |
| 20260507091525 | 21 | 297 | 6.4 | 12.9 | 0.00 | 0.00 | 0.00 | 58 | 1009.6 |
| 20260507091024 | 21 | 292 | 9.7 | 24.1 | 0.00 | 0.00 | 0.00 | 57 | 1009.7 |
| 20260507090522 | 21 | 294 | 8.0 | 14.5 | 0.00 | 0.00 | 0.00 | 57 | 1009.5 |
| 20260507090020 | 21 | 266 | 4.8 | 12.9 | 0.00 | 0.00 | 0.00 | 57 | 1009.4 |
| 20260507085519 | 21 | 298 | 8.0 | 20.9 | 0.00 | 0.00 | 0.00 | 58 | 1009.4 |
| 20260507085047 | 21 | 280 | 9.7 | 27.4 | 0.00 | 0.00 | 0.00 | 58 | 1009.4 |
| 20260507085016 | 21 | 280 | 9.7 | 27.4 | 0.00 | 0.00 | 0.00 | 58 | 1009.4 |
| 20260507084535 | 20 | 281 | 8.0 | 25.7 | 0.00 | 0.00 | 0.00 | 59 | 1009.4 |
| 20260507084048 | 20 | 281 | 9.7 | 24.1 | 0.00 | 0.00 | 0.00 | 58 | 1009.4 |
| 20260507084033 | 20 | 281 | 9.7 | 24.1 | 0.00 | 0.00 | 0.00 | 58 | 1009.4 |
| 20260507083531 | 20 | 288 | 9.7 | 24.1 | 0.00 | 0.00 | 0.00 | 59 | 1009.3 |
| 20260507083029 | 20 | 280 | 9.7 | 20.9 | 0.00 | 0.00 | 0.00 | 59 | 1009.2 |
| 20260507082528 | 20 | 284 | 9.7 | 17.7 | 0.00 | 0.00 | 0.00 | 59 | 1009.2 |
| 20260507082026 | 20 | 286 | 9.7 | 27.4 | 0.00 | 0.00 | 0.00 | 60 | 1009.1 |
| 20260507081524 | 20 | 285 | 6.4 | 20.9 | 0.00 | 0.00 | 0.00 | 60 | 1009.1 |
| 20260507081022 | 20 | 292 | 11.3 | 24.1 | 0.00 | 0.00 | 0.00 | 59 | 1009.0 |
| 20260507080520 | 20 | 288 | 9.7 | 20.9 | 0.00 | 0.00 | 0.00 | 59 | 1009.0 |
| 20260507080018 | 20 | 278 | 11.3 | 22.5 | 0.00 | 0.00 | 0.00 | 59 | 1009.0 |
| 20260507075517 | 20 | 288 | 11.3 | 24.1 | 0.00 | 0.00 | 0.00 | 59 | 1009.1 |
| 20260507075035 | 20 | 295 | 12.9 | 27.4 | 0.00 | 0.00 | 0.00 | 59 | 1009.0 |
| 20260507074533 | 20 | 280 | 11.3 | 29.0 | 0.00 | 0.00 | 0.00 | 59 | 1009.0 |
| 20260507074032 | 20 | 285 | 11.3 | 17.7 | 0.00 | 0.00 | 0.00 | 59 | 1009.0 |